TimeAST,TemperatureF,Dew PointF,Humidity,Sea Level PressureIn,VisibilityMPH,Wind Direction,Wind SpeedMPH,Gust SpeedMPH,PrecipitationIn,Events,Conditions,WindDirDegrees,DateUTC
12:00 AM,80.6,73.4,79,29.89,6.2,East,11.5,-,N/A,,Partly Cloudy,100,2012-11-04 04:00:00
1:00 AM,80.6,73.4,79,29.89,6.2,East,9.2,-,N/A,,Partly Cloudy,100,2012-11-04 05:00:00
2:00 AM,80,74,76,29.88,22,East,10.4,,,,Partly Cloudy,100,2012-11-04 06:00:00
2:00 AM,80.6,73.4,79,29.86,6.2,East,10.4,-,N/A,,Scattered Clouds,100,2012-11-04 06:00:00
3:00 AM,78.8,73.4,83,29.86,6.2,East,12.7,-,N/A,,Scattered Clouds,90,2012-11-04 07:00:00
4:00 AM,78.8,73.4,83,29.86,6.2,East,11.5,-,N/A,,Scattered Clouds,100,2012-11-04 08:00:00
5:00 AM,79,73,78,29.86,22,East,10.4,,,,Scattered Clouds,100,2012-11-04 09:00:00
5:00 AM,78.8,73.4,83,29.86,6.2,East,10.4,-,N/A,,Partly Cloudy,100,2012-11-04 09:00:00
6:00 AM,78.8,73.4,83,29.86,6.2,East,10.4,-,N/A,,Partly Cloudy,100,2012-11-04 10:00:00
7:00 AM,78.8,73.4,83,29.89,6.2,East,10.4,-,N/A,,Partly Cloudy,100,2012-11-04 11:00:00
8:00 AM,82,74,70,29.91,31,ESE,10.4,,,,Scattered Clouds,110,2012-11-04 12:00:00
8:00 AM,82.4,73.4,74,29.89,6.2,ESE,11.5,-,N/A,,Partly Cloudy,110,2012-11-04 12:00:00
9:00 AM,82.4,73.4,74,29.92,6.2,East,11.5,-,N/A,,Scattered Clouds,100,2012-11-04 13:00:00
10:00 AM,84.2,75.2,74,29.95,6.2,East,11.5,-,N/A,,Scattered Clouds,90,2012-11-04 14:00:00
11:00 AM,85,75,65,29.92,31,East,10.4,,,,Partly Cloudy,90,2012-11-04 15:00:00
11:00 AM,86.0,75.2,70,29.92,6.2,East,11.5,-,N/A,,Scattered Clouds,90,2012-11-04 15:00:00
12:00 PM,86.0,75.2,70,29.89,6.2,East,10.4,-,N/A,,Scattered Clouds,90,2012-11-04 16:00:00
1:00 PM,86.0,75.2,70,29.86,6.2,East,10.4,-,N/A,,Scattered Clouds,100,2012-11-04 17:00:00
2:00 PM,82,76,76,29.85,25,ENE,12.7,,,Rain,Light Rain Showers,70,2012-11-04 18:00:00
2:00 PM,82.4,77.0,84,29.83,6.2,ENE,10.4,-,N/A,Rain,Light Rain Showers,70,2012-11-04 18:00:00
3:00 PM,84.2,75.2,74,29.83,6.2,ENE,12.7,-,N/A,,Scattered Clouds,70,2012-11-04 19:00:00
4:00 PM,84.2,75.2,74,29.80,6.2,East,11.5,-,N/A,,Scattered Clouds,80,2012-11-04 20:00:00
5:00 PM,82,74,71,29.81,25,East,12.7,,,,Partly Cloudy,100,2012-11-04 21:00:00
5:00 PM,82.4,73.4,74,29.80,6.2,East,12.7,-,N/A,,Partly Cloudy,100,2012-11-04 21:00:00
6:00 PM,80.6,75.2,84,29.80,6.2,East,11.5,-,N/A,,Partly Cloudy,100,2012-11-04 22:00:00
7:00 PM,80.6,73.4,79,29.83,6.2,East,11.5,-,N/A,,Partly Cloudy,100,2012-11-04 23:00:00
8:00 PM,81,74,75,29.86,31,East,12.7,,,,Partly Cloudy,90,2012-11-05 00:00:00
8:00 PM,80.6,75.2,84,29.86,6.2,East,12.7,-,N/A,,Partly Cloudy,90,2012-11-05 00:00:00
9:00 PM,80.6,75.2,84,29.86,6.2,East,13.8,-,N/A,,Partly Cloudy,90,2012-11-05 01:00:00
10:00 PM,80.6,73.4,79,29.89,6.2,East,13.8,-,N/A,,Scattered Clouds,100,2012-11-05 02:00:00
11:00 PM,80,74,77,29.88,31,East,12.7,,,,Partly Cloudy,100,2012-11-05 03:00:00
11:00 PM,80.6,75.2,84,29.86,6.2,East,12.7,-,N/A,,Scattered Clouds,100,2012-11-05 03:00:00